Regional Weather Roundup
Issued by NWS Kansas City/Pleasant Hill, MO

Home | Current Version | Previous Version | Graphics & Text | Print | Product List | Glossary Off
Versions: 1 2 3 4 5 6 7 8 9 10 11 12 13 14 15 16 17 18 19 20 21 22 23 24 25 26 27 28 29 30 31 32 33 34 35 36 37 38 39 40 41 42 43 44 45 46 47 48 49 50

000
ASUS43 KEAX 170204
RWREAX

WEATHER ROUNDUP FOR EASTERN KANSAS AND NORTHWEST MISSOURI
NATIONAL WEATHER SERVICE KANSAS CITY/PLEASANT HILL MO
900 PM CDT TUE SEP 16 2014

KSZ040-057-103>105-MOZ028-029-037-043-170300-
...KANSAS CITY METROPOLITAN AREA...

CITY           SKY/WX    TMP DP  RH WIND       PRES   REMARKS
K.C. INTL      PTCLDY    64  53  67 SE6       30.04S
K.C. DOWNTOWN  PTCLDY    67  54  63 SE9       30.03S
LEES SUMMIT    CLEAR     64  55  72 SE5       30.05S
OLATHE - IXD   PTCLDY    64  57  78 SE5       30.05R
OLATHE - OJC   PTCLDY    64  56  75 SE6       30.04R
LAWRENCE       MOCLDY    61  56  83 SE6       30.03S

$$

MOZ001>008-011>017-020>025-030>033-038>040-044>046-053-054-170300-
...NORTHERN AND CENTRAL MISSOURI...

CITY           SKY/WX    TMP DP  RH WIND       PRES   REMARKS
ST. JOSEPH     CLOUDY    63  53  70 SE3       30.04S
MOSBY          CLEAR     59  55  88 CALM      30.05R
WHITEMAN AFB   NOT AVBL
CLINTON        CLEAR     59  55  88 CALM      30.06S
SEDALIA        CLEAR     61  54  77 SE3       30.07R
WARSAW         NOT AVBL
MARSHALL       CLEAR     63  55  77 E3        30.07F
CHILLICOTHE      N/A     56  53  90 CALM      30.08R
MOBERLY        CLEAR     55  50  82 E5        30.08S
KIRKSVILLE     CLEAR     52  49  89 CALM      30.09R

$$

MOZ041-047>049-056>058-063>065-088>090-097-170300-
...EASTERN AND SOUTHERN MISSOURI...

CITY           SKY/WX    TMP DP  RH WIND       PRES   REMARKS
ST. LOUIS INTL CLEAR     59  51  75 NE5       30.11R
SPIRIT OF STL  CLEAR     54  52  93 CALM      30.10R
COLUMBIA         N/A     59  54  83 MISG      30.08S
JEFFERSON CITY CLEAR     57  54  89 SE3       30.07S
MEXICO         CLEAR    N/A N/A N/A SE3       30.09R
ROLLA          CLEAR     55  52  89 SE7       30.07F FOG
LEBANON        CLEAR     59  57  94 E5        30.09S
OSAGE BEACH    MOCLDY    61  55  82 S3        30.08R
SPRINGFIELD    CLEAR     65  61  87 S8        30.07R
BRANSON        CLOUDY    64  63  94 E3        30.09S
JOPLIN         MOCLDY    70  65  84 CALM      30.05R
WEST PLAINS    CLOUDY    62  59  90 CALM      30.10S

$$

IAZ060-094-KSZ022-034>040-054-083-096-NEZ052-066-093-170300-
...KANSAS...SOUTHEAST NEBRASKA AND IOWA...

CITY           SKY/WX    TMP DP  RH WIND       PRES   REMARKS
TOPEKA         PTCLDY    65  56  72 E3        30.03R
MANHATTAN      CLEAR     63  55  75 E5        30.00S
EMPORIA        CLEAR     66  61  84 SE7       30.01R
CHANUTE        CLEAR     68  63  84 SE7       30.02S
WICHITA        PTCLDY    72  64  76 S13       30.00R
OMAHA          CLOUDY    64  50  60 SE7       30.03R
LINCOLN        CLOUDY    67  51  56 SE9       30.02S
FALLS CITY     CLOUDY    64  54  69 SE5       30.03R
LAMONI         CLEAR     58  49  72 SE3       30.06S
DES MOINES     CLEAR     60  49  66 SE6       30.06R

$$



USA.gov is the U.S. government's official web portal to all federal, state and local government web resources and services.